Stations météo

réclame
Mon MeteoGroup
Mte.Calamita, Italie (16197): Température de l'air & dewpoint: 18.01.2018 10:00:00 - 24.01.2018 10:00:00 (CET)Mte.Calamita, Italie (16197): Vitesse du vent: 18.01.2018 10:00:00 - 24.01.2018 10:00:00 (CET)Mte.Calamita, Italie (16197): Direction du vent: 18.01.2018 10:00:00 - 24.01.2018 10:00:00 (CET)Mte.Calamita, Italie (16197): reduced air pressure: 18.01.2018 10:00:00 - 24.01.2018 10:00:00 (CET)Mte.Calamita, Italie (16197): visibility: 18.01.2018 10:00:00 - 24.01.2018 10:00:00 (CET)Mte.Calamita, Italie (16197): Ensoleillement: 18.01.2018 10:00:00 - 24.01.2018 10:00:00 (CET)
Date & Time tt [°C] td [°C] ff [km/h] ff [knt] dd ppp [hPa] vv [km] sd [min]
24.01.2018 10:00:00 10,0 8,1 15 8 S 1028,2 0,1 0
24.01.2018 09:00:00 10,0 8,0 18 10 S - - -
24.01.2018 08:00:00 10,0 9,0 8 4 E - - -
24.01.2018 07:00:00 9,2 7,7 8 4 E 1027,2 0,1 0
24.01.2018 06:00:00 - - - - - - - -
24.01.2018 05:00:00 - - - - - - - -
24.01.2018 04:00:00 - - - - - - - -
24.01.2018 03:00:00 - - - - - - - -
24.01.2018 02:00:00 - - - - - - - -
24.01.2018 01:00:00 - - - - - - - -
24.01.2018 00:00:00 - - - - - - - -
23.01.2018 23:00:00 - - - - - - - -
23.01.2018 22:00:00 - - - - - - - -
23.01.2018 21:00:00 - - - - - - - -
23.01.2018 20:00:00 10,0 8,0 8 4 E - 10 -
23.01.2018 19:00:00 10,0 8,1 4 2 N 1022,1 10 0
23.01.2018 18:00:00 10,0 9,0 5 3 N - 10 -
23.01.2018 17:00:00 11,0 10,0 4 2 NNW - 10 -
23.01.2018 16:00:00 13,0 11,4 8 4 NW 1019,2 10 60
23.01.2018 15:00:00 13,0 11,0 4 2 N - 10 -
23.01.2018 14:00:00 12,0 10,0 8 4 W - 10 -
23.01.2018 13:00:00 11,8 10,2 5 3 N 1018,3 10 0
23.01.2018 12:00:00 12,0 10,0 4 2 W - 10 -
23.01.2018 11:00:00 11,0 9,0 8 4 N - 10 -
23.01.2018 10:00:00 10,2 8,5 9 5 NE 1017,7 0,2 0
23.01.2018 09:00:00 10,0 8,0 9 5 N - 0,1 -
23.01.2018 08:00:00 10,0 8,0 4 2 W - 0,2 -
23.01.2018 07:00:00 9,8 8,2 4 2 S 1015,2 0,2 0
23.01.2018 06:00:00 - - - - - - - -
23.01.2018 05:00:00 - - - - - - - -
23.01.2018 04:00:00 - - - - - - - -
23.01.2018 03:00:00 - - - - - - - -
23.01.2018 02:00:00 - - - - - - - -
23.01.2018 01:00:00 - - - - - - - -
23.01.2018 00:00:00 - - - - - - - -
22.01.2018 23:00:00 - - - - - - - -
22.01.2018 22:00:00 - - - - - - - -
22.01.2018 21:00:00 - - - - - - - -
22.01.2018 20:00:00 9,0 9,0 4 2 S - 10 -
22.01.2018 19:00:00 9,2 8,7 4 2 S 1012,3 10 0
22.01.2018 18:00:00 9,0 8,0 8 4 S - 10 -
22.01.2018 17:00:00 10,0 8,0 5 3 SSE - 10 -
22.01.2018 16:00:00 12,0 8,5 4 2 S 1012,7 20 0
22.01.2018 15:00:00 11,0 7,0 4 2 SSW - 10 -
22.01.2018 14:00:00 11,0 5,0 4 2 SSW - 10 -
22.01.2018 13:00:00 11,0 6,0 4 2 S 1013,7 20 0
22.01.2018 12:00:00 11,0 6,0 4 2 E - 10 -
22.01.2018 11:00:00 9,0 4,0 8 4 E - 10 -
22.01.2018 10:00:00 7,8 3,7 9 5 E 1013,1 20 0
22.01.2018 09:00:00 8,0 5,0 9 5 E - 10 -
22.01.2018 08:00:00 8,0 3,0 11 6 SSE - 10 -
22.01.2018 07:00:00 8,0 3,5 11 6 S 1012,2 10 0
22.01.2018 06:00:00 - - - - - - - -
22.01.2018 05:00:00 - - - - - - - -
22.01.2018 04:00:00 - - - - - - - -
22.01.2018 03:00:00 - - - - - - - -
22.01.2018 02:00:00 - - - - - - - -
22.01.2018 01:00:00 - - - - - - - -
22.01.2018 00:00:00 - - - - - - - -
21.01.2018 23:00:00 - - - - - - - -
21.01.2018 22:00:00 - - - - - - - -
21.01.2018 21:00:00 - - - - - - - -
21.01.2018 20:00:00 10,0 6,0 9 5 NNW - 10 -
21.01.2018 19:00:00 10,2 6,0 11 6 N 1007,8 10 0
21.01.2018 18:00:00 10,0 6,0 15 8 NNW - 10 -
21.01.2018 17:00:00 11,0 6,0 13 7 ENE - 10 -
21.01.2018 16:00:00 12,8 6,2 5 3 N 1005,1 20 60
21.01.2018 15:00:00 13,0 6,0 8 4 WNW - 10 -
21.01.2018 14:00:00 13,0 7,0 22 12 N - 10 -
21.01.2018 13:00:00 13,8 7,4 22 12 NNW 1003,9 20 60
21.01.2018 12:00:00 14,0 5,0 15 8 NNW - 10 -
21.01.2018 11:00:00 13,0 7,0 28 15 WNW - 10 -
21.01.2018 10:00:00 13,0 7,9 34 18 N 1002,0 15 60
21.01.2018 09:00:00 12,0 8,0 34 18 W - 10 -
21.01.2018 08:00:00 12,0 8,0 29 16 W - 10 -
21.01.2018 07:00:00 12,2 8,7 18 10 WNW 1001,1 10 0
21.01.2018 06:00:00 - - - - - - - -
21.01.2018 05:00:00 - - - - - - - -
21.01.2018 04:00:00 - - - - - - - -
21.01.2018 03:00:00 - - - - - - - -
21.01.2018 02:00:00 - - - - - - - -
21.01.2018 01:00:00 - - - - - - - -
21.01.2018 00:00:00 - - - - - - - -
20.01.2018 23:00:00 - - - - - - - -
20.01.2018 22:00:00 - - - - - - - -
20.01.2018 21:00:00 - - - - - - - -
20.01.2018 20:00:00 8,0 7,0 8 4 WNW - 8 -
20.01.2018 19:00:00 8,4 5,2 4 2 W 1010,0 10 0
20.01.2018 18:00:00 9,0 5,0 4 2 W - 10 -
20.01.2018 17:00:00 9,0 5,0 4 2 S - 10 -
20.01.2018 16:00:00 10,6 4,5 5 3 W 1010,1 20 0
20.01.2018 15:00:00 11,0 3,0 4 2 W - 10 -
20.01.2018 14:00:00 12,0 5,0 4 2 W - 10 -
20.01.2018 13:00:00 11,2 3,0 5 3 W 1011,8 20 60
20.01.2018 12:00:00 11,0 3,0 8 4 WNW - 10 -
20.01.2018 11:00:00 10,0 3,0 11 6 W - 10 -
20.01.2018 10:00:00 9,0 5,0 15 8 W 1012,1 20 60
20.01.2018 09:00:00 8,0 5,0 15 8 NNW - 10 -
20.01.2018 08:00:00 8,0 5,0 18 10 NNW - 10 -
20.01.2018 07:00:00 8,2 5,1 15 8 NNW 1011,1 10 0
20.01.2018 06:00:00 - - - - - - - -
20.01.2018 05:00:00 - - - - - - - -
20.01.2018 04:00:00 - - - - - - - -
20.01.2018 03:00:00 - - - - - - - -
20.01.2018 02:00:00 - - - - - - - -
20.01.2018 01:00:00 - - - - - - - -
20.01.2018 00:00:00 - - - - - - - -
19.01.2018 23:00:00 - - - - - - - -
19.01.2018 22:00:00 - - - - - - - -
19.01.2018 21:00:00 - - - - - - - -
19.01.2018 20:00:00 10,0 7,0 8 4 W - 10 -
19.01.2018 19:00:00 10,4 7,1 5 3 W 1009,0 10 0
19.01.2018 18:00:00 9,0 6,0 5 3 W - 10 -
19.01.2018 17:00:00 10,0 8,0 4 2 N - 10 -
19.01.2018 16:00:00 10,0 8,1 8 4 N 1008,6 15 0
19.01.2018 15:00:00 10,0 8,0 8 4 E - 10 -
19.01.2018 14:00:00 10,0 8,0 8 4 E - 4,0 -
19.01.2018 13:00:00 10,0 8,3 5 3 E 1009,7 0,5 0
19.01.2018 12:00:00 10,0 8,0 8 4 E - 0,5 -
19.01.2018 11:00:00 10,0 8,0 8 4 E - 0,2 -
19.01.2018 10:00:00 9,4 7,7 9 5 E 1009,9 0,5 0
19.01.2018 09:00:00 9,0 7,0 9 5 E - 0,1 -
19.01.2018 08:00:00 9,0 7,0 8 4 E - 0,1 -
19.01.2018 07:00:00 8,2 7,0 9 5 E 1010,7 0,2 0
19.01.2018 06:00:00 - - - - - - - -
19.01.2018 05:00:00 - - - - - - - -
19.01.2018 04:00:00 - - - - - - - -
19.01.2018 03:00:00 - - - - - - - -
19.01.2018 02:00:00 - - - - - - - -
19.01.2018 01:00:00 - - - - - - - -
19.01.2018 00:00:00 - - - - - - - -
18.01.2018 23:00:00 - - - - - - - -
18.01.2018 22:00:00 - - - - - - - -
18.01.2018 21:00:00 - - - - - - - -
18.01.2018 20:00:00 8,0 7,0 11 6 E - 10 -
18.01.2018 19:00:00 8,0 7,1 15 8 E 1015,1 10 0
18.01.2018 18:00:00 8,0 7,0 8 4 E - 10 -
18.01.2018 17:00:00 9,0 7,0 9 5 ESE - 10 -
18.01.2018 16:00:00 11,4 5,5 9 5 ESE 1014,9 30 60
18.01.2018 15:00:00 12,0 5,0 11 6 SSE - 10 -
18.01.2018 14:00:00 12,0 6,0 8 4 SSE - 10 -
18.01.2018 13:00:00 10,6 7,3 11 6 SSE 1017,1 20 60
18.01.2018 12:00:00 11,0 7,0 5 3 SSE - 10 -
18.01.2018 11:00:00 10,0 6,0 9 5 SSE - 10 -
18.01.2018 10:00:00 10,0 3,5 8 4 S 1017,2 20 60

tt = Température de l'air
td = dewpoint
ff = Vitesse du vent
dd = Direction du vent
ppp = reduced air pressure
vv = visibility
sd = Ensoleillement

stations d'obs. à proximité